| time (UTC) | temp C | wind direction | speed KPH | gust KPH | rain 1hr cm | rain 24hr cm | rain mn cm | humidity % | barometer mb |
| 20260506051215 | 11 | 338 | 12.9 | 19.3 | 0.00 | 0.00 | 0.00 | 80 | 1008.8 |
| 20260506050215 | 11 | 338 | 9.7 | 14.5 | 0.00 | 0.00 | 0.00 | 80 | 1008.8 |
| 20260506044216 | 11 | 315 | 14.5 | 19.3 | 0.00 | 0.00 | 0.00 | 80 | 1008.9 |
| 20260506043216 | 11 | 293 | 11.3 | 14.5 | 0.00 | 0.00 | 0.00 | 80 | 1008.9 |
| 20260506042215 | 11 | 293 | 12.9 | 19.3 | 0.00 | 0.00 | 0.00 | 79 | 1008.9 |
| 20260506041215 | 11 | 315 | 14.5 | 20.9 | 0.00 | 0.00 | 0.00 | 79 | 1008.9 |
| 20260506040215 | 11 | 293 | 6.4 | 9.7 | 0.00 | 0.00 | 0.00 | 79 | 1008.9 |
| 20260506035216 | 11 | 315 | 12.9 | 27.4 | 0.00 | 0.00 | 0.00 | 78 | 1008.9 |
| 20260506034215 | 11 | 315 | 14.5 | 22.5 | 0.00 | 0.00 | 0.00 | 79 | 1008.9 |
| 20260506033216 | 11 | 315 | 9.7 | 16.1 | 0.00 | 0.00 | 0.00 | 79 | 1009.1 |
| 20260506032215 | 11 | 293 | 11.3 | 24.1 | 0.00 | 0.00 | 0.00 | 79 | 1009.1 |
| 20260506031215 | 11 | 315 | 12.9 | 19.3 | 0.00 | 0.00 | 0.00 | 79 | 1009.1 |
| 20260506030216 | 11 | 338 | 9.7 | 14.5 | 0.00 | 0.00 | 0.00 | 78 | 1009.2 |
| 20260506025215 | 11 | 293 | 6.4 | 9.7 | 0.00 | 0.00 | 0.00 | 77 | 1009.2 |
| 20260506024215 | 10 | 293 | 12.9 | 17.7 | 0.00 | 0.00 | 0.00 | 77 | 1009.4 |
| 20260506023215 | 10 | 315 | 9.7 | 11.3 | 0.00 | 0.00 | 0.00 | 78 | 1009.3 |
| 20260506022215 | 10 | 315 | 8.0 | 11.3 | 0.00 | 0.00 | 0.00 | 79 | 1009.4 |
| 20260506021217 | 10 | 315 | 11.3 | 16.1 | 0.00 | 0.00 | 0.00 | 79 | 1009.4 |
| 20260506020217 | 10 | 338 | 6.4 | 11.3 | 0.00 | 0.00 | 0.00 | 80 | 1009.5 |
| 20260506015218 | 10 | 293 | 6.4 | 12.9 | 0.00 | 0.00 | 0.00 | 79 | 1009.5 |
| 20260506014218 | 10 | 315 | 11.3 | 14.5 | 0.00 | 0.00 | 0.00 | 78 | 1009.6 |
| 20260506013217 | 10 | 315 | 9.7 | 16.1 | 0.00 | 0.00 | 0.00 | 78 | 1009.6 |
| 20260506012217 | 10 | 315 | 4.8 | 9.7 | 0.00 | 0.00 | 0.00 | 78 | 1009.5 |
| 20260506011218 | 10 | 338 | 11.3 | 17.7 | 0.00 | 0.00 | 0.00 | 79 | 1009.6 |
| 20260506010217 | 10 | 315 | 14.5 | 22.5 | 0.00 | 0.00 | 0.00 | 79 | 1009.7 |
| 20260506005217 | 10 | 315 | 9.7 | 16.1 | 0.00 | 0.00 | 0.00 | 78 | 1009.6 |
| 20260506004217 | 10 | 315 | 8.0 | 11.3 | 0.00 | 0.00 | 0.00 | 78 | 1009.7 |
| 20260506003217 | 10 | 315 | 6.4 | 11.3 | 0.00 | 0.00 | 0.00 | 78 | 1009.9 |
| 20260506002217 | 10 | 315 | 6.4 | 11.3 | 0.00 | 0.00 | 0.00 | 78 | 1009.9 |
| 20260506001217 | 10 | 315 | 8.0 | 11.3 | 0.00 | 0.00 | 0.00 | 78 | 1010.0 |
| 20260506000219 | 10 | 315 | 8.0 | 14.5 | 0.00 | 0.00 | 0.00 | 78 | 1010.1 |
| 20260505235217 | 10 | 315 | 8.0 | 11.3 | 0.00 | 0.00 | 0.00 | 77 | 1010.3 |
| 20260505234217 | 10 | 338 | 9.7 | 12.9 | 0.00 | 0.00 | 0.00 | 77 | 1010.2 |
| 20260505233217 | 10 | 315 | 12.9 | 16.1 | 0.00 | 0.00 | 0.00 | 76 | 1010.3 |
| 20260505232217 | 10 | 315 | 11.3 | 17.7 | 0.00 | 0.00 | 0.00 | 76 | 1010.4 |
| 20260505231217 | 10 | 315 | 6.4 | 9.7 | 0.00 | 0.00 | 0.00 | 76 | 1010.4 |
| 20260505230217 | 10 | 293 | 4.8 | 8.0 | 0.00 | 0.00 | 0.00 | 76 | 1010.5 |
| 20260505225217 | 10 | 0 | 9.7 | 14.5 | 0.00 | 0.00 | 0.00 | 75 | 1010.6 |
| 20260505224217 | 10 | 315 | 9.7 | 14.5 | 0.00 | 0.00 | 0.00 | 75 | 1010.5 |
| 20260505223217 | 10 | 315 | 11.3 | 14.5 | 0.00 | 0.00 | 0.00 | 74 | 1010.5 |
| 20260505222217 | 10 | 338 | 6.4 | 12.9 | 0.00 | 0.00 | 0.00 | 74 | 1010.6 |
| 20260505221217 | 10 | 293 | 8.0 | 11.3 | 0.00 | 0.00 | 0.00 | 74 | 1010.7 |
| 20260505220217 | 10 | 315 | 9.7 | 14.5 | 0.00 | 0.00 | 0.00 | 73 | 1010.8 |
| 20260505215216 | 10 | 315 | 9.7 | 16.1 | 0.00 | 0.00 | 0.00 | 73 | 1010.9 |
| 20260505214216 | 10 | 315 | 8.0 | 12.9 | 0.00 | 0.00 | 0.00 | 73 | 1010.9 |
| 20260505213217 | 10 | 315 | 4.8 | 8.0 | 0.00 | 0.00 | 0.00 | 73 | 1010.9 |
| 20260505212216 | 11 | 315 | 4.8 | 9.7 | 0.00 | 0.00 | 0.00 | 73 | 1010.9 |
| 20260505211216 | 11 | 315 | 6.4 | 9.7 | 0.00 | 0.00 | 0.00 | 73 | 1010.9 |
| 20260505210216 | 11 | 315 | 8.0 | 11.3 | 0.00 | 0.00 | 0.00 | 73 | 1011.0 |
| 20260505205216 | 11 | 338 | 9.7 | 17.7 | 0.00 | 0.00 | 0.00 | 73 | 1011.1 |
| 20260505204217 | 11 | 338 | 8.0 | 12.9 | 0.00 | 0.00 | 0.00 | 73 | 1011.1 |
| 20260505203216 | 11 | 338 | 4.8 | 11.3 | 0.00 | 0.00 | 0.00 | 73 | 1011.0 |
| 20260505202216 | 11 | 315 | 12.9 | 17.7 | 0.00 | 0.00 | 0.00 | 72 | 1011.1 |
| 20260505201216 | 11 | 315 | 11.3 | 12.9 | 0.00 | 0.00 | 0.00 | 72 | 1010.9 |
| 20260505200216 | 11 | 315 | 8.0 | 12.9 | 0.00 | 0.00 | 0.00 | 72 | 1010.9 |
| 20260505195216 | 11 | 23 | 9.7 | 17.7 | 0.00 | 0.00 | 0.00 | 72 | 1010.8 |
| 20260505194216 | 12 | 315 | 12.9 | 17.7 | 0.00 | 0.00 | 0.00 | 72 | 1010.7 |
| 20260505193216 | 12 | 315 | 12.9 | 16.1 | 0.00 | 0.00 | 0.00 | 72 | 1010.5 |
| 20260505192216 | 12 | 315 | 9.7 | 16.1 | 0.00 | 0.00 | 0.00 | 73 | 1010.4 |
| 20260505191216 | 12 | 293 | 14.5 | 19.3 | 0.00 | 0.00 | 0.00 | 73 | 1010.3 |
| 20260505190216 | 12 | 315 | 9.7 | 14.5 | 0.00 | 0.00 | 0.00 | 73 | 1010.2 |
| 20260505185216 | 12 | 293 | 14.5 | 24.1 | 0.00 | 0.00 | 0.00 | 73 | 1010.2 |
| 20260505184215 | 12 | 315 | 14.5 | 22.5 | 0.00 | 0.00 | 0.00 | 73 | 1010.2 |
| 20260505183216 | 12 | 315 | 12.9 | 20.9 | 0.00 | 0.00 | 0.00 | 73 | 1010.1 |
| 20260505182215 | 12 | 315 | 14.5 | 24.1 | 0.00 | 0.00 | 0.00 | 72 | 1010.0 |
| 20260505181216 | 13 | 315 | 14.5 | 22.5 | 0.00 | 0.00 | 0.00 | 72 | 1010.0 |
| 20260505180216 | 13 | 338 | 14.5 | 24.1 | 0.00 | 0.00 | 0.00 | 71 | 1010.1 |
| 20260505175215 | 13 | 315 | 11.3 | 19.3 | 0.00 | 0.00 | 0.00 | 71 | 1010.1 |
| 20260505174215 | 13 | 315 | 12.9 | 25.7 | 0.00 | 0.00 | 0.00 | 71 | 1010.1 |
| 20260505173215 | 13 | 293 | 14.5 | 25.7 | 0.00 | 0.00 | 0.00 | 70 | 1010.1 |
| 20260505172216 | 13 | 338 | 17.7 | 30.6 | 0.00 | 0.00 | 0.00 | 70 | 1010.1 |
| 20260505171215 | 13 | 315 | 17.7 | 29.0 | 0.00 | 0.00 | 0.00 | 70 | 1010.2 |
| 20260505170215 | 13 | 293 | 14.5 | 24.1 | 0.00 | 0.00 | 0.00 | 70 | 1010.2 |
| 20260505165215 | 13 | 315 | 11.3 | 20.9 | 0.00 | 0.00 | 0.00 | 70 | 1010.2 |
| 20260505164215 | 13 | 315 | 16.1 | 29.0 | 0.00 | 0.00 | 0.00 | 70 | 1010.3 |
| 20260505163215 | 13 | 315 | 20.9 | 30.6 | 0.00 | 0.00 | 0.00 | 68 | 1010.3 |
| 20260505162215 | 14 | 315 | 12.9 | 20.9 | 0.00 | 0.00 | 0.00 | 68 | 1010.2 |
| 20260505161216 | 14 | 315 | 11.3 | 17.7 | 0.00 | 0.00 | 0.00 | 68 | 1010.2 |
| 20260505160215 | 14 | 315 | 16.1 | 22.5 | 0.00 | 0.00 | 0.00 | 68 | 1010.2 |
| 20260505153215 | 15 | 315 | 14.5 | 24.1 | 0.00 | 0.00 | 0.00 | 66 | 1010.2 |
| 20260505152215 | 15 | 315 | 14.5 | 22.5 | 0.00 | 0.00 | 0.00 | 66 | 1010.4 |
| 20260505151215 | 15 | 315 | 17.7 | 30.6 | 0.00 | 0.00 | 0.00 | 64 | 1010.4 |
| 20260505150215 | 15 | 293 | 9.7 | 14.5 | 0.00 | 0.00 | 0.00 | 65 | 1010.3 |
| 20260505140215 | 16 | 315 | 12.9 | 19.3 | 0.00 | 0.00 | 0.00 | 64 | 1010.5 |
| 20260505130217 | 16 | 315 | 11.3 | 16.1 | 0.00 | 0.00 | 0.00 | 63 | 1010.7 |
| 20260505124217 | 16 | 315 | 19.3 | 32.2 | 0.00 | 0.00 | 0.00 | 62 | 1010.8 |
| 20260505123217 | 16 | 338 | 8.0 | 11.3 | 0.00 | 0.00 | 0.00 | 63 | 1010.8 |
| 20260505122217 | 16 | 293 | 16.1 | 24.1 | 0.00 | 0.00 | 0.00 | 62 | 1010.9 |
| 20260505121217 | 16 | 315 | 11.3 | 29.0 | 0.00 | 0.00 | 0.00 | 62 | 1010.7 |
| 20260505120217 | 16 | 315 | 16.1 | 22.5 | 0.00 | 0.00 | 0.00 | 62 | 1010.8 |
| 20260505115217 | 16 | 315 | 9.7 | 17.7 | 0.00 | 0.00 | 0.00 | 63 | 1010.7 |
| 20260505114217 | 16 | 315 | 12.9 | 20.9 | 0.00 | 0.00 | 0.00 | 63 | 1011.0 |
| 20260505113217 | 16 | 315 | 20.9 | 32.2 | 0.00 | 0.00 | 0.00 | 62 | 1011.0 |
| 20260505112217 | 16 | 315 | 11.3 | 17.7 | 0.00 | 0.00 | 0.00 | 64 | 1011.0 |
| 20260505111217 | 16 | 315 | 12.9 | 20.9 | 0.00 | 0.00 | 0.00 | 62 | 1011.1 |
| 20260505110217 | 17 | 315 | 12.9 | 24.1 | 0.00 | 0.00 | 0.00 | 60 | 1011.3 |
| 20260505102217 | 16 | 338 | 12.9 | 19.3 | 0.00 | 0.00 | 0.00 | 58 | 1011.4 |
| 20260505101217 | 16 | 293 | 14.5 | 19.3 | 0.00 | 0.00 | 0.00 | 58 | 1011.5 |
| 20260505100216 | 15 | 315 | 11.3 | 16.1 | 0.00 | 0.00 | 0.00 | 58 | 1011.6 |
| 20260505095217 | 15 | 315 | 11.3 | 17.7 | 0.00 | 0.00 | 0.00 | 59 | 1011.6 |
| 20260505094216 | 15 | 315 | 9.7 | 19.3 | 0.00 | 0.00 | 0.00 | 60 | 1011.6 |
| 20260505093216 | 15 | 315 | 16.1 | 24.1 | 0.00 | 0.00 | 0.00 | 58 | 1011.7 |
| 20260505092216 | 15 | 315 | 9.7 | 14.5 | 0.00 | 0.00 | 0.00 | 61 | 1011.6 |
| 20260505091217 | 15 | 315 | 11.3 | 14.5 | 0.00 | 0.00 | 0.00 | 63 | 1011.7 |
| 20260505090216 | 15 | 338 | 8.0 | 14.5 | 0.00 | 0.00 | 0.00 | 65 | 1011.7 |
| 20260505085217 | 14 | 315 | 12.9 | 25.7 | 0.00 | 0.00 | 0.00 | 64 | 1011.7 |
| 20260505084216 | 14 | 293 | 11.3 | 17.7 | 0.00 | 0.00 | 0.00 | 65 | 1011.7 |
| 20260505083216 | 13 | 338 | 14.5 | 20.9 | 0.00 | 0.00 | 0.00 | 66 | 1011.8 |
| 20260505082216 | 13 | 0 | 14.5 | 22.5 | 0.00 | 0.00 | 0.00 | 66 | 1011.8 |
| 20260505081217 | 13 | 0 | 9.7 | 16.1 | 0.00 | 0.00 | 0.00 | 68 | 1011.7 |
| 20260505080217 | 13 | 315 | 12.9 | 22.5 | 0.00 | 0.00 | 0.00 | 70 | 1011.6 |
| 20260505075216 | 13 | 315 | 11.3 | 17.7 | 0.00 | 0.00 | 0.00 | 71 | 1011.6 |
| 20260505074216 | 12 | 0 | 9.7 | 19.3 | 0.00 | 0.00 | 0.00 | 74 | 1011.7 |
| 20260505073216 | 12 | 338 | 6.4 | 11.3 | 0.00 | 0.00 | 0.00 | 74 | 1011.8 |
| 20260505072216 | 12 | 315 | 11.3 | 16.1 | 0.00 | 0.00 | 0.00 | 75 | 1011.9 |
| 20260505071217 | 12 | 338 | 11.3 | 17.7 | 0.00 | 0.00 | 0.00 | 77 | 1012.1 |
| 20260505070216 | 12 | 315 | 9.7 | 14.5 | 0.00 | 0.00 | 0.00 | 78 | 1012.0 |
| 20260505065217 | 11 | 0 | 9.7 | 14.5 | 0.00 | 0.00 | 0.00 | 79 | 1012.1 |
| 20260505064216 | 11 | 0 | 6.4 | 11.3 | 0.00 | 0.00 | 0.00 | 81 | 1012.2 |
| 20260505063216 | 11 | 0 | 8.0 | 11.3 | 0.00 | 0.00 | 0.00 | 82 | 1012.2 |
| 20260505062216 | 11 | 338 | 6.4 | 11.3 | 0.00 | 0.00 | 0.00 | 83 | 1012.3 |
| 20260505061216 | 11 | 315 | 4.8 | 9.7 | 0.00 | 0.00 | 0.00 | 83 | 1012.3 |
| 20260505060216 | 11 | 0 | 6.4 | 9.7 | 0.00 | 0.00 | 0.00 | 83 | 1012.3 |